Dania, FL

9:55 PM EST on January 19, 2017 (GMT -0500)
Fort Lauderdale-Hollywood International

Weather History for KFLL - July, 2014

Change the Weather History Date:

Thursday, July 24, 2014

  Actual Average Record
Temperature  
Mean Temperature 85 °F 85 °F  
Max Temperature 91 °F 91 °F 97 °F (1924)
Min Temperature 78 °F 79 °F 69 °F (1933)
Degree Days  
Heating Degree Days 0 0  
Month to date heating degree days 0 0  
Since 1 June heating degree days 0 0  
Since 1 July heating degree days 0 0  
Cooling Degree Days 20 20  
Month to date cooling degree days 469 461  
Year to date cooling degree days 2520 2422  
Since 1 June cooling degree days 985 1004  
Growing Degree Days 34 (Base 50)    
Moisture  
Dew Point 74 °F    
Average Humidity 72    
Maximum Humidity 85    
Minimum Humidity 59    
Precipitation  
Precipitation T in 0.17 in 1.70 in (1985)
Month to date precipitation 8.21 4.74  
Year to date precipitation 37.45 32.39  
Snow  
Snow 0.00 in - - ()
Month to date snowfall 0.0  
Since 1 June snowfall 0.0  
Since 1 July snowfall 0.0  
Snow Depth 0.00 in    
Sea Level Pressure  
Sea Level Pressure 30.04 in    
Wind  
Wind Speed 5 mph (SSE)    
Max Wind Speed 9 mph    
Max Gust Speed 9 mph    
Visibility 10 miles    
Events Rain    
T = Trace of Precipitation, MM = Missing Value Source: NWS Daily Summary

Daily Weather History Graph

Daily Weather History Graph

Search for Another Location

Airport or City:

Trip Planner

Search our weather history database for the weather conditions in past years. The results will help you decide how hot, cold, wet, or windy it might be!

Date:

Astronomy

Jul. 24, 2014 Rise Set
Actual Time 6:42 AM EDT 8:11 PM EDT
Civil Twilight 6:17 AM EDT 8:36 PM EDT
Nautical Twilight 5:47 AM EDT 9:06 PM EDT
Astronomical Twilight 5:15 AM EDT 9:38 PM EDT
Moon 4:47 AM EDT (7/24) 6:28 PM EDT (7/24)
Length of Visible Light 14h 19m
Length of Day
13h 29m
Waning Crescent, 5% of the Moon is Illuminated
Jul 24
Waning Crescent
Jul 26
New
Aug 3
First Quarter
Aug 10
Full
Aug 17
Last Quarter

Hourly Weather History & Observations

Time (EDT) Temp. Heat Index Dew Point Humidity Pressure Visibility Wind Dir Wind Speed Gust Speed Precip Events Conditions
12:53 AM 82.9 °F 90.8 °F 75.9 °F 79% 30.05 in 10.0 mi SSE 4.6 mph - N/A   Scattered Clouds
1:53 AM 82.0 °F 88.6 °F 75.0 °F 79% 30.02 in 10.0 mi SE 4.6 mph - N/A   Scattered Clouds
2:53 AM 80.1 °F 85.1 °F 75.0 °F 85% 30.02 in 10.0 mi Calm Calm - N/A   Scattered Clouds
3:53 AM 80.1 °F 85.1 °F 75.0 °F 85% 30.01 in 10.0 mi Calm Calm - N/A   Scattered Clouds
4:53 AM 80.1 °F 85.4 °F 75.9 °F 87% 30.02 in 10.0 mi Calm Calm - N/A   Partly Cloudy
5:53 AM 80.1 °F 85.4 °F 75.9 °F 87% 30.03 in 10.0 mi Calm Calm - N/A   Mostly Cloudy
6:47 AM 78.8 °F - 73.4 °F 83% 30.04 in 7.0 mi SSE 6.9 mph - N/A   Mostly Cloudy
6:53 AM 79.0 °F - 73.0 °F 82% 30.04 in 6.0 mi SSE 9.2 mph - 0.00 in Rain Light Rain
7:53 AM 82.9 °F 88.0 °F 72.0 °F 69% 30.04 in 10.0 mi South 3.5 mph - 0.00 in   Mostly Cloudy
8:53 AM 84.9 °F 92.1 °F 73.9 °F 69% 30.05 in 10.0 mi South 5.8 mph - N/A   Mostly Cloudy
9:53 AM 87.1 °F 96.3 °F 75.0 °F 67% 30.05 in 10.0 mi South 5.8 mph - N/A   Mostly Cloudy
10:53 AM 89.1 °F 98.0 °F 73.9 °F 61% 30.06 in 10.0 mi South 13.8 mph - N/A   Scattered Clouds
11:53 AM 89.1 °F 99.1 °F 75.0 °F 63% 30.06 in 10.0 mi North - - N/A   Partly Cloudy
12:53 PM 90.0 °F 99.0 °F 73.9 °F 59% 30.05 in 10.0 mi South 11.5 mph - N/A   Partly Cloudy
1:53 PM 90.0 °F 97.9 °F 73.0 °F 57% 30.05 in 10.0 mi South 9.2 mph - N/A   Partly Cloudy
2:53 PM 87.1 °F 95.4 °F 73.9 °F 65% 30.05 in 10.0 mi South 6.9 mph - N/A   Scattered Clouds
3:53 PM 89.1 °F 97.0 °F 73.0 °F 59% 30.02 in 10.0 mi Calm Calm - N/A   Scattered Clouds
4:53 PM 88.0 °F 96.5 °F 73.9 °F 63% 30.01 in 10.0 mi ESE 6.9 mph - N/A   Partly Cloudy
5:53 PM 88.0 °F 96.5 °F 73.9 °F 63% 30.00 in 10.0 mi ESE 6.9 mph - N/A   Scattered Clouds
6:53 PM 87.1 °F 95.4 °F 73.9 °F 65% 30.02 in 10.0 mi ESE 4.6 mph - N/A   Scattered Clouds
7:53 PM 86.0 °F 93.8 °F 73.9 °F 67% 30.02 in 10.0 mi ESE 3.5 mph - N/A   Scattered Clouds
8:53 PM 84.9 °F 92.1 °F 73.9 °F 69% 30.03 in 10.0 mi ESE 6.9 mph - N/A   Partly Cloudy
9:53 PM 84.9 °F 92.1 °F 73.9 °F 69% 30.04 in 10.0 mi Calm Calm - N/A   Clear
10:53 PM 84.0 °F 91.2 °F 73.9 °F 72% 30.05 in 10.0 mi Variable 3.5 mph - N/A   Clear
11:53 PM 84.9 °F 91.4 °F 73.0 °F 67% 30.06 in 10.0 mi South 5.8 mph - N/A   Partly Cloudy